Weather reports worldwide

Advertisment
Dax, France (7603): temperature & dewpoint: 27.06.2020 19:00:00 - 03.07.2020 19:00:00 (CEST)Dax, France (7603): temperature 5cm: 27.06.2020 19:00:00 - 03.07.2020 19:00:00 (CEST)Dax, France (7603): temperature -20cm & temperature -100cm: 27.06.2020 19:00:00 - 03.07.2020 19:00:00 (CEST)Dax, France (7603): wind speed & gusts: 27.06.2020 19:00:00 - 03.07.2020 19:00:00 (CEST)Dax, France (7603): wind direction: 27.06.2020 19:00:00 - 03.07.2020 19:00:00 (CEST)Dax, France (7603): reduced air pressure: 27.06.2020 19:00:00 - 03.07.2020 19:00:00 (CEST)Dax, France (7603): visibility: 27.06.2020 19:00:00 - 03.07.2020 19:00:00 (CEST)Dax, France (7603): sunshine duration: 27.06.2020 19:00:00 - 03.07.2020 19:00:00 (CEST)Dax, France (7603): precipitation: 27.06.2020 19:00:00 - 03.07.2020 19:00:00 (CEST)
Date & Time tt [°C] td [°C] tt 5cm [°C] tt -20cm [°C] tt -100cm [°C] ff [km/h] ff [kn] fx [km/h] fx [kn] dd ppp [hPa] vv [km] sd [min] rr [mm]
03.07.2020 19:00:00 20,9 11,8 - - - 9 5 22 12 WNW 1023,8 27 - 0,0
03.07.2020 18:00:00 21,5 12,6 22,5 22,0 20,4 10 5 21 12 WNW 1023,6 29 0 0,0
03.07.2020 17:00:00 22,1 11,8 24,6 21,9 20,4 13 7 23 12 N 1023,5 23 41 0,0
03.07.2020 16:00:00 22,3 10,4 21,9 21,8 20,4 6 3 15 8 W 1023,7 25 5 0,0
03.07.2020 15:00:00 20,2 12,4 20,0 21,7 20,4 5 3 15 8 W 1024,2 31 0 0,0
03.07.2020 14:00:00 20,7 11,6 22,6 21,6 20,4 6 3 21 11 NW 1024,4 20 12 0,0
03.07.2020 13:00:00 19,8 12,8 21,6 21,6 20,4 11 6 22 12 N 1024,6 20 28 0,0
03.07.2020 12:00:00 20,1 11,8 18,9 21,5 20,4 5 3 10 6 WSW 1024,5 20 19 0,0
03.07.2020 11:00:00 17,2 12,5 15,4 21,6 20,4 4 2 20 11 NNW 1024,2 20 0 0,0
03.07.2020 10:00:00 19,9 13,8 20,7 21,6 20,4 4 2 12 6 ESE 1023,9 20 56 0,0
03.07.2020 09:00:00 18,7 14,6 20,0 21,7 20,4 4 2 8 5 SE 1023,9 19 60 0,0
03.07.2020 08:00:00 15,5 14,9 14,7 21,8 20,4 0 0 3 2 N 1023,8 15 21 0,0
03.07.2020 07:00:00 14,4 13,8 13,7 21,9 20,4 0 0 6 3 N 1023,4 11 8 0,0
03.07.2020 06:00:00 14,3 13,5 13,2 22,0 20,4 2 1 4 2 W 1023,1 12 0 0,0
03.07.2020 05:00:00 14,7 13,6 13,7 22,1 20,4 0 0 4 2 N 1023,0 15 0 0,0
03.07.2020 04:00:00 15,3 14,2 14,3 22,2 20,4 2 1 5 3 SSE 1023,1 13 0 0,0
03.07.2020 03:00:00 15,8 14,2 15,1 22,2 20,4 3 1 5 3 SW 1023,2 18 0 0,0
03.07.2020 02:00:00 16,4 14,8 15,7 22,3 20,4 4 2 5 3 S 1023,2 17 0 0,0
03.07.2020 01:00:00 16,7 13,4 16,2 22,3 20,4 0 0 7 4 N 1023,1 25 0 0,0
03.07.2020 00:00:00 17,3 13,4 16,9 22,4 20,4 4 2 7 4 W 1022,9 28 0 0,0
02.07.2020 23:00:00 17,6 13,5 17,2 22,4 20,4 2 1 5 3 SW 1022,6 25 0 0,0
02.07.2020 22:00:00 18,1 13,6 17,6 22,4 20,4 3 2 14 8 NW 1022,0 27 0 0,0
02.07.2020 21:00:00 18,9 13,7 18,9 22,4 20,4 6 3 13 7 NW 1021,8 25 0 0,0
02.07.2020 20:00:00 19,2 14,7 19,6 22,5 20,4 6 3 11 6 WNW 1021,2 20 0 0,0
02.07.2020 19:00:00 18,8 14,7 19,1 22,5 20,4 4 2 12 6 NW 1021,0 25 0 0,0
02.07.2020 18:00:00 18,1 14,6 17,7 22,4 20,4 2 1 17 9 N 1020,7 17 0 0,0
02.07.2020 17:00:00 18,5 14,6 17,9 22,4 20,4 6 4 18 10 NNW 1020,5 6 0 0,0
02.07.2020 16:00:00 20,1 15,1 20,1 22,3 20,4 7 4 16 9 WNW 1020,3 24 0 0,0
02.07.2020 15:00:00 19,5 14,1 20,2 22,3 20,4 9 5 18 10 WNW 1020,0 21 0 0,0
02.07.2020 14:00:00 19,7 15,3 18,7 22,3 20,4 7 4 15 8 N 1019,9 26 2 0,0
02.07.2020 13:00:00 16,9 15,8 17,4 22,3 20,4 8 4 17 9 N 1020,0 6 0 0,2
02.07.2020 12:00:00 16,8 16,3 16,2 22,3 20,4 9 5 26 14 NNW 1019,6 1,0 0 2,4
02.07.2020 11:00:00 17,4 16,1 17,5 22,4 20,4 4 2 8 5 NNW 1019,0 6 0 0,2
02.07.2020 10:00:00 17,0 16,4 17,0 22,4 20,4 6 3 15 8 N 1018,8 2,0 0 2,2
02.07.2020 09:00:00 17,4 16,8 17,0 22,5 20,4 2 1 7 4 WSW 1018,4 2,0 0 0,4
02.07.2020 08:00:00 17,3 16,5 16,6 22,5 20,4 4 2 11 6 SSW 1018,1 2,0 0 0,0
02.07.2020 07:00:00 17,7 15,9 17,2 22,6 20,4 8 4 12 7 SW 1017,6 4,0 0 0,0
02.07.2020 06:00:00 18,3 15,2 18,1 22,6 20,4 4 2 6 4 WSW 1017,1 23 0 0,0
02.07.2020 05:00:00 18,6 15,3 18,3 22,7 20,4 3 2 9 5 WNW 1016,8 25 0 0,0
02.07.2020 04:00:00 18,9 15,8 18,6 22,7 20,4 5 3 8 4 NW 1017,1 17 0 0,0
02.07.2020 03:00:00 19,2 16,1 18,9 22,8 20,4 3 2 9 5 NNW 1017,2 22 0 0,0
02.07.2020 02:00:00 19,2 17,0 18,9 22,8 20,4 5 3 16 9 NW 1017,3 19 0 0,0
02.07.2020 01:00:00 19,5 17,5 19,1 22,9 20,4 8 5 14 8 NNW 1017,3 21 0 0,0
02.07.2020 00:00:00 19,8 17,8 19,5 22,9 20,3 8 5 13 7 NW 1017,1 16 0 0,0
01.07.2020 23:00:00 20,4 17,6 20,1 23,0 20,4 5 3 8 5 W 1017,1 24 0 0,0
01.07.2020 22:00:00 20,4 17,0 20,0 23,0 20,4 4 2 14 8 W 1016,2 26 11 0,0
01.07.2020 21:00:00 21,2 16,8 21,3 23,0 20,3 7 4 18 10 WNW 1016,1 32 0 0,0
01.07.2020 20:00:00 21,6 17,8 21,7 23,0 20,4 8 4 18 10 W 1016,1 32 0 0,0
01.07.2020 19:00:00 21,9 17,9 21,8 22,9 20,3 9 5 17 9 W 1015,7 30 0 0,0
01.07.2020 18:00:00 22,1 17,7 22,3 22,9 20,4 9 5 19 11 W 1015,8 22 0 0,0
01.07.2020 17:00:00 21,2 18,0 21,9 22,9 20,4 11 6 21 11 W 1016,0 19 0 0,0
01.07.2020 16:00:00 21,9 17,5 23,3 22,8 20,3 12 7 23 12 WNW 1015,7 28 0 0,0
01.07.2020 15:00:00 22,8 17,5 23,6 22,7 20,3 10 5 18 10 W 1015,2 27 0 0,0
01.07.2020 14:00:00 22,3 17,7 22,1 22,7 20,3 5 3 22 12 NW 1014,8 20 0 0,0
01.07.2020 13:00:00 22,4 17,5 24,1 22,7 20,3 11 6 24 13 WNW 1014,5 20 0 0,0
01.07.2020 12:00:00 22,6 17,7 22,0 22,6 20,3 9 5 18 10 W 1014,1 20 2 0,0
01.07.2020 11:00:00 21,0 17,6 21,4 22,7 20,3 8 5 16 9 WNW 1013,8 10 0 0,0
01.07.2020 10:00:00 20,6 18,2 20,6 22,7 20,3 7 4 16 9 W 1013,5 10 0 0,0
01.07.2020 09:00:00 20,2 18,3 19,6 22,7 20,3 5 3 12 7 WNW 1013,1 9 0 0,0
01.07.2020 08:00:00 18,8 17,1 18,4 22,8 20,3 5 3 11 6 W 1012,7 7 29 0,0
01.07.2020 07:00:00 17,8 17,0 17,1 22,9 20,3 5 3 8 5 WNW 1012,3 8 9 0,0
01.07.2020 06:00:00 17,8 16,8 17,3 23,0 20,3 6 4 11 6 WNW 1011,9 7 0 0,0
01.07.2020 05:00:00 18,1 16,6 17,8 23,1 20,3 8 5 15 8 W 1012,2 10 0 0,0
01.07.2020 04:00:00 18,3 16,5 17,5 23,1 20,3 5 3 13 7 W 1011,7 14 0 0,0
01.07.2020 03:00:00 17,9 16,2 17,4 23,2 20,3 7 4 11 6 W 1011,7 16 0 0,0
01.07.2020 02:00:00 18,9 16,7 18,3 23,3 20,3 5 3 12 7 WNW 1012,3 14 0 0,0
01.07.2020 01:00:00 19,7 16,9 19,0 23,4 20,3 8 4 13 7 SW 1012,9 19 0 0,0
01.07.2020 00:00:00 20,8 17,2 19,9 23,5 20,3 2 1 14 7 W 1012,2 24 0 0,0
30.06.2020 23:00:00 22,2 17,3 21,0 23,5 20,3 5 3 13 7 NNW 1012,2 34 0 0,0
30.06.2020 22:00:00 25,6 15,6 24,1 23,5 20,3 5 3 13 7 NNE 1012,0 40 18 0,0
30.06.2020 21:00:00 26,7 15,7 26,2 23,5 20,3 8 4 11 6 NE 1012,0 35 60 0,0
30.06.2020 20:00:00 26,9 15,9 29,1 23,4 20,3 9 5 19 10 E 1011,9 29 57 0,0
30.06.2020 19:00:00 27,3 16,0 29,5 23,3 20,3 10 5 20 11 SE 1012,3 27 60 0,0
30.06.2020 18:00:00 27,0 16,3 30,0 23,1 20,3 10 5 21 11 SE 1012,9 32 60 0,0
30.06.2020 17:00:00 27,0 16,0 30,0 22,9 20,3 6 4 19 11 E 1013,5 27 60 0,0
30.06.2020 16:00:00 26,1 15,2 29,0 22,6 20,3 8 5 20 11 ENE 1014,1 30 60 0,0
30.06.2020 15:00:00 25,5 17,4 28,4 22,4 20,3 6 3 21 11 E 1014,7 30 60 0,0
30.06.2020 14:00:00 24,1 15,3 27,6 22,3 20,3 10 5 19 10 ESE 1015,2 20 60 0,0
30.06.2020 13:00:00 23,7 15,7 26,6 22,1 20,3 6 3 18 10 SE 1016,0 20 60 0,0
30.06.2020 12:00:00 22,3 14,9 25,5 22,1 20,3 5 3 21 11 ESE 1016,3 20 60 0,0
30.06.2020 11:00:00 21,2 14,6 22,2 22,1 20,3 5 3 16 9 ESE 1016,7 19 58 0,0
30.06.2020 10:00:00 20,2 15,4 20,9 22,1 20,3 7 4 16 9 E 1017,1 12 60 0,0
30.06.2020 09:00:00 18,0 14,3 17,9 22,2 20,3 7 4 13 7 ESE 1017,3 10 60 0,0
30.06.2020 08:00:00 15,6 14,0 14,8 22,3 20,2 4 2 5 3 E 1017,5 15 37 0,0
30.06.2020 07:00:00 13,7 13,1 12,4 22,4 20,3 0 0 5 3 N 1017,7 15 9 0,0
30.06.2020 06:00:00 13,5 12,7 12,5 22,6 20,3 3 1 4 2 ESE 1017,7 17 0 0,0
30.06.2020 05:00:00 13,5 12,6 12,6 22,7 20,3 2 1 5 3 SE 1018,0 22 0 0,0
30.06.2020 04:00:00 14,1 12,8 13,1 22,8 20,2 0 0 3 2 N 1018,3 28 0 0,0
30.06.2020 03:00:00 14,2 12,8 13,1 22,9 20,2 0 0 8 4 N 1018,8 26 0 0,0
30.06.2020 02:00:00 14,8 12,8 13,8 23,1 20,2 0 0 6 3 N 1019,1 30 0 0,0
30.06.2020 01:00:00 15,2 12,7 14,3 23,2 20,2 0 0 9 5 N 1019,5 28 0 0,0
30.06.2020 00:00:00 16,5 13,0 15,2 23,3 20,2 3 2 7 4 NW 1019,5 30 0 0,0
29.06.2020 23:00:00 17,4 12,9 16,6 23,3 20,2 4 2 7 4 WNW 1019,6 36 0 0,0
29.06.2020 22:00:00 18,6 12,8 17,9 23,4 20,2 5 3 13 7 WNW 1019,4 33 19 0,0
29.06.2020 21:00:00 20,7 12,7 20,5 23,4 20,2 8 5 21 12 WNW 1019,4 34 60 0,0
29.06.2020 20:00:00 21,6 12,7 24,0 23,4 20,2 13 7 24 13 NW 1019,3 26 57 0,0
29.06.2020 19:00:00 21,9 13,3 22,4 23,3 20,2 11 6 23 13 WNW 1019,6 26 37 0,0
29.06.2020 18:00:00 22,4 13,7 24,2 23,2 20,2 9 5 25 13 WNW 1019,9 24 46 0,0
29.06.2020 17:00:00 22,7 14,0 25,5 23,1 20,2 14 7 23 12 NW 1020,1 27 41 0,0
29.06.2020 16:00:00 22,6 14,2 24,9 23,0 20,2 10 5 27 15 W 1020,6 37 5 0,0
29.06.2020 15:00:00 22,1 13,7 24,2 22,9 20,2 12 7 25 14 NNW 1020,9 24 6 0,0
29.06.2020 14:00:00 21,9 14,5 23,8 22,9 20,2 11 6 24 13 NW 1021,3 29 16 0,0
29.06.2020 13:00:00 20,7 14,6 22,2 22,9 20,2 9 5 18 10 NW 1021,5 28 0 0,0
29.06.2020 12:00:00 20,8 15,1 21,7 22,9 20,2 9 5 21 11 NNW 1021,3 15 19 0,0
29.06.2020 11:00:00 20,0 14,6 20,5 22,9 20,2 10 5 18 10 NW 1021,1 15 0 0,0
29.06.2020 10:00:00 19,3 15,2 19,9 22,9 20,1 7 4 16 9 WNW 1021,2 20 0 0,0
29.06.2020 09:00:00 19,0 15,3 19,3 23,0 20,2 6 3 14 8 NNW 1021,1 20 0 0,0
29.06.2020 08:00:00 19,0 15,3 18,7 23,0 20,2 8 4 15 8 W 1020,8 20 0 0,0
29.06.2020 07:00:00 18,8 15,3 18,6 23,1 20,2 7 4 16 9 WNW 1020,2 20 0 0,0
29.06.2020 06:00:00 19,0 15,5 18,8 23,1 20,1 8 4 23 12 W 1019,8 20 0 0,0
29.06.2020 05:00:00 19,7 17,1 19,5 23,2 20,2 11 6 23 12 WNW 1019,8 15 0 0,0
29.06.2020 04:00:00 20,1 17,7 19,9 23,3 20,1 9 5 18 10 W 1019,5 23 0 0,0
29.06.2020 03:00:00 20,3 17,3 20,1 23,4 20,1 6 3 16 9 W 1019,7 26 0 0,0
29.06.2020 02:00:00 20,3 17,3 19,9 23,4 20,1 6 3 14 7 W 1019,9 27 0 0,0
29.06.2020 01:00:00 20,2 17,4 19,9 23,5 20,1 6 3 14 7 W 1020,0 23 0 0,0
29.06.2020 00:00:00 20,1 17,1 19,8 23,6 20,1 6 3 11 6 SW 1020,1 19 0 0,0
28.06.2020 23:00:00 20,2 16,6 19,7 23,6 20,1 5 3 13 7 W 1020,2 26 0 0,0
28.06.2020 22:00:00 21,1 16,1 20,5 23,6 20,1 7 4 23 12 W 1019,7 28 0 0,0
28.06.2020 21:00:00 23,5 16,0 23,0 23,6 20,1 10 6 20 11 WNW 1019,2 36 48 0,0
28.06.2020 20:00:00 25,4 16,0 25,6 23,5 20,1 9 5 16 9 WSW 1018,8 27 50 0,0
28.06.2020 19:00:00 25,3 16,7 26,1 23,5 20,1 6 3 19 11 WSW 1018,7 33 51 0,0
28.06.2020 18:00:00 25,5 17,2 26,0 23,4 20,1 3 2 14 8 WSW 1018,8 26 33 0,0
28.06.2020 17:00:00 24,4 17,6 25,5 23,3 20,1 6 3 16 9 W 1019,1 24 9 0,0
28.06.2020 16:00:00 23,8 17,3 25,0 23,2 20,1 8 4 15 8 W 1019,3 29 0 0,0
28.06.2020 15:00:00 23,8 17,3 25,0 23,1 20,1 3 2 11 6 WSW 1019,2 30 9 0,0
28.06.2020 14:00:00 23,4 16,7 24,9 23,1 20,0 5 3 9 5 WSW 1019,7 28 0 0,0
28.06.2020 13:00:00 22,9 16,2 23,6 23,1 20,1 3 2 9 5 SE 1019,8 16 2 0,0
28.06.2020 12:00:00 21,2 15,9 22,3 23,1 20,1 6 3 11 6 NE 1020,3 23 0 0,0
28.06.2020 11:00:00 21,4 16,4 21,5 23,1 20,1 3 1 10 5 SSW 1020,1 26 0 0,0
28.06.2020 10:00:00 20,5 15,7 20,9 23,2 20,1 3 1 8 4 SW 1020,1 35 0 0,0
28.06.2020 09:00:00 20,4 16,6 19,8 23,2 20,1 2 1 6 3 SSE 1019,8 22 0 0,0
28.06.2020 08:00:00 19,6 16,1 19,2 23,3 20,0 3 1 5 3 W 1019,7 23 0 0,0
28.06.2020 07:00:00 19,3 16,1 19,0 23,3 20,0 2 1 4 2 SSW 1019,3 24 0 0,0
28.06.2020 06:00:00 19,5 16,3 19,2 23,4 20,0 3 1 5 3 W 1019,3 24 0 0,0
28.06.2020 05:00:00 19,7 16,3 19,4 23,5 20,0 3 2 9 5 NW 1019,3 23 0 0,0
28.06.2020 04:00:00 19,8 17,2 19,6 23,6 20,0 4 2 10 6 WNW 1019,0 21 0 0,0
28.06.2020 03:00:00 20,1 17,3 19,9 23,7 20,0 5 3 13 7 W 1018,9 20 0 0,0
28.06.2020 02:00:00 20,3 17,5 19,9 23,8 20,0 5 3 14 8 WNW 1018,8 18 0 0,0
28.06.2020 01:00:00 20,7 16,1 20,3 23,9 20,0 5 3 15 8 NW 1018,6 26 0 0,0
28.06.2020 00:00:00 21,8 15,9 21,2 23,9 20,0 5 3 11 6 NW 1018,0 41 0 0,0
27.06.2020 23:00:00 23,1 15,4 22,1 24,0 20,0 9 5 13 7 N 1017,6 39 0 0,0
27.06.2020 22:00:00 23,6 15,4 22,4 24,0 20,0 6 3 21 11 NNW 1016,6 40 3 0,0
27.06.2020 21:00:00 25,8 15,5 25,9 23,9 20,0 9 5 18 10 NW 1016,0 33 60 0,0
27.06.2020 20:00:00 27,9 16,8 28,4 23,9 20,0 8 4 15 8 NW 1015,7 35 28 0,0
27.06.2020 19:00:00 27,8 15,5 29,9 23,7 20,0 7 4 17 9 NW 1015,6 30 49 0,0

tt = temperature
td = dewpoint
tt 5cm = temperature 5cm
tt -20cm = temperature -20cm
tt -100cm = temperature -100cm
ff = wind speed
fx = gusts
dd = wind direction
ppp = reduced air pressure
vv = visibility
sd = sunshine duration
rr = precipitation

Next stations